Flag for China Weather past 2 weeks in Xiamen, Fujian, China

Now
59 °F

Mostly cloudy.


Feels Like: 56 °F
Forecast: 56 / 63 °F
Wind: 15 mph from Northeast

Location: Xiamen Airport

Current Time: Jan 27, 2015 at 8:54:58 PM

Latest Report: Jan 27, 2015 at 8:00 PM


Visibility: 5 mi

Pressure: 30.09 "Hg

Humidity: 82%

Dew point: 54 °F

Location of XiamenLocation

Historic Weather in Xiamen — Graph

°F

Xiamen temperature yesterday

Maximum temperature yesterday: 66 °F (at 2:00 PM)
Minimum temperature yesterday: 57 °F (at 4:00 AM)
Average temperature yesterday: 61 °F

Past Weeks' High & Low Weather Summary

 TemperatureHumidityPressure
High72 °F (Jan 21, 1:00 PM)100% (Jan 13, 11:00 AM)30.36 "Hg (Jan 13, 11:00 AM)
Low46 °F (Jan 24, 6:00 AM)16% (Jan 24, 4:00 PM)30.04 "Hg (Jan 21, 3:00 PM)
Average57 °F72%30.18 "Hg
* Reported Jan 12 7:00 PM — Jan 27 7:00 PM, Xiamen, Weather by CustomWeather, © 2014

Note: Actual official high and low records may vary slightly from our data, if they occured in-between our weather recording intervals... More about our weather records

Advertising

Xiamen weather history for previous 24 hours

 ConditionsComfort  
Time TempWeatherWind HumidityBarometerVisibility
7:00 PM
Jan 27
59 °FMostly cloudy.13 mph82%30.09 "Hg4 mi
6:00 PM61 °FMostly cloudy.10 mph83%30.07 "Hg4 mi
5:00 PM63 °FMostly cloudy.13 mph77%30.07 "Hg5 mi
4:00 PM64 °FFog.6 mph73%30.04 "Hg3 mi
3:00 PM64 °FFog.8 mph78%30.04 "Hg3 mi
2:00 PM64 °FFog.8 mph78%30.07 "Hg3 mi
1:00 PM63 °FFog.8 mph77%30.09 "Hg3 mi
12:00 PM63 °FFog.10 mph77%30.12 "Hg3 mi
11:00 AM63 °FFog.13 mph77%30.12 "Hg3 mi
10:00 AM63 °FFog.13 mph77%30.15 "Hg2 mi
9:00 AM61 °FFog.8 mph83%30.15 "Hg2 mi
8:00 AM61 °FFog.6 mph88%30.15 "Hg2 mi
7:00 AM59 °FFog.3 mph94%30.12 "Hg1 mi
6:00 AM61 °FFog.6 mph88%30.12 "Hg1 mi
5:00 AM61 °FFog.3 mph88%30.09 "Hg1 mi
4:00 AM61 °FFog.3 mph88%30.09 "Hg2 mi
3:00 AM61 °FFog.3 mph88%30.09 "Hg2 mi
2:00 AM61 °FFog.8 mph88%30.09 "Hg2 mi
1:00 AM61 °FFog.10 mph88%30.09 "Hg2 mi
12:00 AM61 °FFog.6 mph88%30.09 "Hg2 mi
11:00 PM
Jan 26
61 °FFog.6 mph88%30.12 "Hg3 mi
10:00 PM61 °FFog.6 mph88%30.12 "Hg2 mi
9:00 PM61 °FFog.3 mph88%30.09 "Hg2 mi
8:00 PM61 °FFog.3 mph88%30.09 "Hg2 mi
Weather by CustomWeather, © 2014

See weather overviewHow to use our weather pages